FW8708 Weather Reports


time (UTC)temp
C
wind
direction
speed
KPH
gust
KPH
rain 1hr
cm
rain 24hr
cm
rain mn
cm
humidity
%
barometer
mb
20260503055027 3 273 3.2 9.7 0.00 0.00 0.00 73 1018.0
20260503054529 3 271 3.2 12.9 0.00 0.00 0.00 73 1018.0
20260503054027 3 271 4.8 12.9 0.00 0.00 0.00 73 1017.9
20260503053527 3 274 4.8 9.7 0.00 0.00 0.00 73 1018.0
20260503053034 3 277 3.2 9.7 0.00 0.00 0.00 72 1018.0
20260503052524 3 265 4.8 9.7 0.00 0.00 0.00 72 1017.9
20260503052025 3 315 1.6 12.9 0.00 0.00 0.00 71 1017.9
20260503051524 3 316 3.2 12.9 0.00 0.00 0.00 71 1018.0
20260503051021 3 277 1.6 14.5 0.00 0.00 0.00 71 1017.9
20260503050522 3 306 4.8 14.5 0.00 0.00 0.00 71 1017.9
20260503050023 3 264 4.8 11.3 0.00 0.00 0.00 70 1017.9
20260503045520 3 262 4.8 11.3 0.00 0.00 0.00 70 1017.8
20260503045019 3 249 4.8 11.3 0.00 0.00 0.00 70 1017.8
20260503044539 4 262 6.4 14.5 0.00 0.00 0.00 69 1017.9
20260503044017 4 271 3.2 14.5 0.00 0.00 0.00 69 1017.7
20260503043516 4 273 6.4 12.9 0.00 0.00 0.00 69 1017.7
20260503043032 4 281 6.4 14.5 0.00 0.00 0.00 69 1017.7
20260503042513 4 315 6.4 14.5 0.00 0.00 0.00 69 1017.6
20260503042012 4 277 3.2 20.9 0.00 0.00 0.00 70 1017.6
20260503041511 4 292 8.0 20.9 0.00 0.00 0.00 70 1017.7
20260503041011 3 321 8.0 17.7 0.00 0.00 0.00 70 1017.6
20260503040508 3 302 6.4 16.1 0.00 0.00 0.00 71 1017.6
20260503040007 3 340 1.6 9.7 0.00 0.00 0.00 72 1017.5
20260503035507 3 360 1.6 4.8 0.00 0.00 0.00 72 1017.5
20260503035006 3 360 1.6 4.8 0.00 0.00 0.00 72 1017.4
20260503034504 3 360 0.0 3.2 0.00 0.00 0.00 71 1017.4
20260503034004 3 360 0.0 4.8 0.00 0.00 0.00 70 1017.4
20260503033504 3 360 0.0 6.4 0.00 0.00 0.00 70 1017.4
20260503033002 4 360 0.0 6.4 0.00 0.00 0.00 69 1017.3
20260503032603 4 360 0.0 4.8 0.00 0.00 0.00 68 1017.2
20260503032100 4 360 0.0 6.4 0.00 0.00 0.00 67 1017.2
20260503031559 4 18 0.0 6.4 0.00 0.00 0.00 66 1017.1
20260503031059 5 360 1.6 6.4 0.00 0.00 0.00 66 1017.1
20260503030557 5 360 3.2 9.7 0.00 0.00 0.00 65 1017.0
20260503025556 5 290 3.2 9.7 0.00 0.00 0.00 64 1016.9
20260503025058 5 15 3.2 9.7 0.00 0.00 0.00 64 1017.0
20260503024555 5 355 3.2 12.9 0.00 0.00 0.00 64 1017.1
20260503024056 5 288 1.6 14.5 0.00 0.00 0.00 63 1017.1
20260503023555 5 302 6.4 14.5 0.00 0.00 0.00 63 1017.1
20260503023105 5 319 4.8 20.9 0.00 0.00 0.00 63 1017.2
20260503022554 5 342 8.0 20.9 0.00 0.00 0.00 63 1017.1
20260503022058 5 317 9.7 17.7 0.00 0.00 0.00 63 1017.0
20260503021558 5 336 3.2 14.5 0.00 0.00 0.00 64 1017.0
20260503021053 5 329 6.4 16.1 0.00 0.00 0.00 64 1017.0
20260503020553 5 338 4.8 16.1 0.00 0.00 0.00 65 1016.9
20260503020057 5 304 4.8 14.5 0.00 0.00 0.00 65 1017.0
20260503015551 5 298 4.8 14.5 0.00 0.00 0.00 65 1016.9
20260503015051 5 286 4.8 14.5 0.00 0.00 0.00 65 1016.8
20260503014551 5 335 6.4 16.1 0.00 0.00 0.00 65 1016.8
20260503014051 5 342 8.0 16.1 0.00 0.00 0.00 66 1016.7
20260503013554 5 335 4.8 14.5 0.00 0.00 0.00 66 1016.7
20260503013051 5 333 1.6 9.7 0.00 0.00 0.00 66 1016.6
20260503012549 5 350 3.2 8.0 0.00 0.00 0.00 66 1016.6
20260503012047 5 309 0.0 3.2 0.00 0.00 0.00 65 1016.5
20260503011600 5 309 0.0 4.8 0.00 0.00 0.00 65 1016.4
20260503011049 6 309 1.6 12.9 0.00 0.00 0.00 64 1016.4
20260503010547 6 309 4.8 12.9 0.00 0.00 0.00 63 1016.3
20260503010047 6 323 3.2 12.9 0.00 0.00 0.00 63 1016.3
20260503005550 6 277 3.2 16.1 0.00 0.00 0.00 62 1016.4
20260503005045 6 302 4.8 16.1 0.00 0.00 0.00 62 1016.2
20260503004548 6 331 6.4 16.1 0.00 0.00 0.00 61 1016.2
20260503004044 6 300 4.8 14.5 0.00 0.00 0.00 61 1016.3
20260503003544 6 297 4.8 14.5 0.00 0.00 0.00 61 1016.2
20260503003043 7 355 6.4 14.5 0.00 0.00 0.00 60 1016.1
20260503002544 7 320 6.4 17.7 0.00 0.00 0.00 59 1016.1
20260503002044 7 11 8.0 24.1 0.00 0.00 0.00 59 1016.0
20260503001543 7 304 11.3 24.1 0.00 0.00 0.00 58 1016.0
20260503001042 7 16 6.4 22.5 0.00 0.00 0.00 58 1015.8
20260503000643 7 312 14.5 27.4 0.00 0.00 0.00 57 1015.8
20260503000059 7 42 12.9 27.4 0.00 0.00 0.00 57 1015.6
20260502235542 7 330 6.4 22.5 0.00 0.00 0.00 56 1015.5
20260502235042 8 350 12.9 22.5 0.00 0.00 0.00 56 1015.4
20260502234552 8 337 9.7 17.7 0.00 0.00 0.00 54 1015.4
20260502234042 8 348 8.0 22.5 0.00 0.00 0.00 53 1015.2
20260502233540 8 296 11.3 24.1 0.00 0.00 0.00 53 1015.1
20260502233042 8 342 12.9 24.1 0.00 0.00 0.00 51 1015.1
20260502232542 8 306 11.3 25.7 0.00 0.00 0.00 51 1015.1
20260502232043 9 297 12.9 33.8 0.00 0.00 0.00 51 1015.0
20260502231540 9 333 14.5 33.8 0.00 0.00 0.00 51 1015.0
20260502231041 9 329 9.7 20.9 0.00 0.00 0.00 53 1015.0
20260502230540 9 314 11.3 20.9 0.00 0.00 0.00 51 1015.0
20260502230040 9 292 8.0 22.5 0.00 0.00 0.00 51 1014.9
20260502225539 10 301 14.5 29.0 0.00 0.00 0.00 50 1014.8
20260502225039 10 5 17.7 29.0 0.00 0.00 0.00 49 1014.8
20260502224539 10 360 14.5 22.5 0.00 0.00 0.00 50 1014.8
20260502224041 10 340 8.0 25.7 0.00 0.00 0.00 51 1014.8
20260502223538 10 360 12.9 22.5 0.00 0.00 0.00 51 1014.9
20260502223040 10 296 12.9 22.5 0.00 0.00 0.00 50 1014.9
20260502222539 10 32 8.0 27.4 0.00 0.00 0.00 51 1014.7
20260502222038 10 13 16.1 27.4 0.00 0.00 0.00 52 1014.8
20260502221539 10 355 11.3 17.7 0.00 0.00 0.00 51 1014.7
20260502221037 10 9 6.4 20.9 0.00 0.00 0.00 52 1014.6
20260502220537 10 318 9.7 27.4 0.00 0.00 0.00 53 1014.7
20260502220043 10 5 19.3 27.4 0.00 0.00 0.00 51 1014.4
20260502215536 10 296 16.1 24.1 0.00 0.00 0.00 51 1014.5
20260502215036 10 336 12.9 24.1 0.00 0.00 0.00 52 1014.3
20260502214539 10 311 9.7 25.7 0.00 0.00 0.00 51 1014.3
20260502214036 10 306 14.5 25.7 0.00 0.00 0.00 51 1014.3
20260502213539 10 329 11.3 24.1 0.00 0.00 0.00 50 1014.2
20260502213040 10 360 8.0 25.7 0.00 0.00 0.00 50 1014.1
20260502212536 11 344 11.3 29.0 0.00 0.00 0.00 49 1014.0
20260502212035 11 306 14.5 29.0 0.00 0.00 0.00 48 1014.0
20260502211538 11 316 17.7 29.0 0.00 0.00 0.00 48 1014.0
20260502211038 11 355 12.9 30.6 0.00 0.00 0.00 48 1013.8
20260502210537 11 348 14.5 30.6 0.00 0.00 0.00 49 1013.8
20260502210034 11 308 17.7 29.0 0.00 0.00 0.00 49 1013.7
20260502205535 11 355 17.7 29.0 0.00 0.00 0.00 49 1013.6
20260502205036 11 351 14.5 32.2 0.00 0.00 0.00 48 1013.5
20260502204537 11 330 16.1 32.2 0.00 0.00 0.00 44 1013.5
20260502204034 12 338 16.1 30.6 0.00 0.00 0.00 47 1013.5
20260502203533 12 16 12.9 25.7 0.00 0.00 0.00 46 1013.3
20260502203033 11 13 12.9 32.2 0.00 0.00 0.00 47 1013.4
20260502202533 12 294 19.3 32.2 0.00 0.00 0.00 45 1013.3
20260502202033 12 331 17.7 30.6 0.00 0.00 0.00 47 1013.2
20260502201541 12 333 14.5 29.0 0.00 0.00 0.00 43 1013.2
20260502201035 12 341 14.5 24.1 0.00 0.00 0.00 46 1013.2
20260502200532 12 348 11.3 25.7 0.00 0.00 0.00 45 1013.2
20260502200032 12 24 11.3 25.7 0.00 0.00 0.00 44 1013.1
20260502195532 12 317 9.7 27.4 0.00 0.00 0.00 45 1013.3
20260502195031 12 306 9.7 30.6 0.00 0.00 0.00 44 1013.4
20260502194533 13 338 8.0 25.7 0.00 0.00 0.00 44 1013.4
20260502194030 13 306 16.1 25.7 0.00 0.00 0.00 46 1013.5
20260502193528 13 310 9.7 27.4 0.00 0.00 0.00 47 1013.4
20260502193028 13 329 16.1 30.6 0.00 0.00 0.00 44 1013.5
20260502192528 12 15 19.3 30.6 0.00 0.00 0.00 43 1013.5
20260502192027 12 28 8.0 27.4 0.00 0.00 0.00 43 1013.7
20260502191527 12 349 16.1 27.4 0.00 0.00 0.00 43 1013.6
20260502191027 13 317 8.0 25.7 0.00 0.00 0.00 43 1013.5
20260502190526 12 338 9.7 27.4 0.00 0.00 0.00 43 1013.5
20260502190126 12 254 16.1 27.4 0.00 0.00 0.00 42 1013.3
20260502185524 12 292 9.7 27.4 0.00 0.00 0.00 43 1013.4
20260502185024 12 292 14.5 25.7 0.00 0.00 0.00 44 1013.4
20260502184523 12 281 11.3 25.7 0.00 0.00 0.00 42 1013.4
20260502184022 12 316 9.7 24.1 0.00 0.00 0.00 50 1013.6
20260502183521 12 329 12.9 24.1 0.00 0.00 0.00 44 1013.5
20260502183020 11 36 12.9 25.7 0.00 0.00 0.00 47 1013.7
20260502182521 12 340 17.7 25.7 0.00 0.00 0.00 45 1013.7
20260502182021 12 268 8.0 24.1 0.00 0.00 0.00 47 1013.7
20260502181518 12 300 12.9 24.1 0.00 0.00 0.00 45 1014.0
20260502181017 12 5 8.0 19.3 0.00 0.00 0.00 47 1014.0
20260502180516 11 360 8.0 22.5 0.00 0.00 0.00 46 1014.1
20260502170509 11 11 9.7 20.9 0.00 0.00 0.00 50 1014.8
20260502164006 10 291 6.4 19.3 0.00 0.00 0.00 48 1015.2
20260502163506 10 355 9.7 22.5 0.00 0.00 0.00 52 1015.3
20260502163011 10 304 8.0 22.5 0.00 0.00 0.00 51 1015.3
20260502162505 10 43 11.3 22.5 0.00 0.00 0.00 50 1015.2
20260502162004 10 5 12.9 22.5 0.00 0.00 0.00 51 1015.3
20260502161503 10 15 11.3 22.5 0.00 0.00 0.00 51 1015.5
20260502161004 10 295 12.9 24.1 0.00 0.00 0.00 53 1015.5
20260502160504 9 13 12.9 24.1 0.00 0.00 0.00 54 1015.4
20260502152058 7 360 14.5 25.7 0.00 0.00 0.00 54 1015.8
20260502151612 7 19 8.0 19.3 0.00 0.00 0.00 59 1015.8
20260502151058 7 350 11.3 20.9 0.00 0.00 0.00 59 1015.8
20260502150558 7 67 11.3 20.9 0.00 0.00 0.00 58 1015.7
20260502130552 6 35 9.7 27.4 0.00 0.00 0.00 62 1015.7
20260502130103 6 333 12.9 27.4 0.00 0.00 0.00 62 1015.8
20260502123546 5 15 6.4 20.9 0.00 0.00 0.00 65 1015.3
20260502123047 5 10 11.3 20.9 0.00 0.00 0.00 66 1015.3
20260502122547 5 9 8.0 19.3 0.00 0.00 0.00 66 1015.3
20260502122046 5 15 9.7 19.3 0.00 0.00 0.00 67 1015.2
20260502121546 5 12 9.7 19.3 0.00 0.00 0.00 67 1015.2
20260502121046 5 350 9.7 22.5 0.00 0.00 0.00 67 1015.1
20260502120545 5 20 11.3 22.5 0.00 0.00 0.00 67 1015.1
20260502115543 5 360 9.7 22.5 0.00 0.00 0.00 70 1015.3
20260502115043 5 355 9.7 22.5 0.00 0.00 0.00 70 1015.4
20260502114542 5 9 9.7 25.7 0.00 0.00 0.00 72 1015.3
20260502114042 5 345 16.1 25.7 0.00 0.00 0.00 71 1015.3
20260502113541 5 346 9.7 22.5 0.00 0.00 0.00 71 1015.3
20260502113049 5 9 11.3 20.9 0.00 0.00 0.00 71 1015.3
20260502112540 5 340 9.7 20.9 0.00 0.00 0.00 72 1015.0
20260502112041 5 331 11.3 20.9 0.00 0.00 0.00 71 1015.0
20260502111543 5 5 14.5 20.9 0.00 0.00 0.00 72 1015.0
20260502111037 5 355 9.7 17.7 0.00 0.00 0.00 73 1015.1
20260502110537 5 355 8.0 20.9 0.00 0.00 0.00 73 1014.9
20260502110038 5 355 8.0 20.9 0.00 0.00 0.00 73 1014.9
20260502105536 5 348 11.3 20.9 0.00 0.00 0.00 73 1014.7
20260502105038 5 13 11.3 20.9 0.00 0.00 0.00 72 1014.8
20260502104535 5 5 9.7 20.9 0.00 0.00 0.00 73 1014.6
20260502104034 5 5 11.3 20.9 0.00 0.00 0.00 72 1014.8
20260502103533 5 360 11.3 19.3 0.00 0.00 0.00 73 1014.8
20260502103032 6 9 9.7 17.7 0.00 0.00 0.00 73 1014.7
20260502102532 6 347 8.0 20.9 0.00 0.00 0.00 73 1014.6
20260502102031 6 346 11.3 19.3 0.00 0.00 0.00 74 1014.7
20260502101529 6 355 11.3 20.9 0.00 0.00 0.00 75 1014.6
20260502101028 6 355 6.4 20.9 0.00 0.00 0.00 77 1014.6
20260502100527 6 360 9.7 19.3 0.00 0.00 0.00 77 1014.8
20260502091522 6 325 8.0 22.5 0.00 0.00 0.00 81 1015.0
20260502091020 6 349 14.5 22.5 0.00 0.00 0.00 81 1015.1
20260502090520 6 355 11.3 22.5 0.00 0.00 0.00 81 1015.2
20260502071504 7 355 6.4 14.5 0.00 0.00 0.00 78 1014.5
20260502071004 7 321 4.8 14.5 0.00 0.00 0.00 78 1014.4
20260502070507 7 14 8.0 16.1 0.00 0.00 0.00 78 1014.3
20260502070005 7 360 9.7 17.7 0.00 0.00 0.00 78 1014.2
20260502065502 7 27 9.7 17.7 0.00 0.00 0.00 78 1014.3
20260502065100 7 13 6.4 19.3 0.00 0.00 0.00 78 1014.4
20260502064623 7 17 8.0 19.3 0.00 0.00 0.00 78 1014.7
20260502064058 7 10 6.4 14.5 0.00 0.00 0.00 77 1014.8
20260502063557 8 346 4.8 14.5 0.00 0.00 0.00 77 1015.0